| time (UTC) | temp F | wind direction | speed MPH | gust MPH | rain 1hr in | rain 24hr in | rain mn in | humidity % | barometer mb |
| 20260503201652 | 61 | 146 | 0.0 | 1.0 | 0.00 | 0.00 | 0.00 | 81 | 1016.1 |
| 20260503194651 | 61 | 162 | 0.0 | 6.0 | 0.00 | 0.00 | 0.00 | 80 | 1016.1 |
| 20260503193141 | 61 | 184 | 2.0 | 5.0 | 0.00 | 0.00 | 0.00 | 78 | 1016.0 |
| 20260503191656 | 61 | 140 | 2.0 | 4.0 | 0.00 | 0.00 | 0.00 | 77 | 1015.6 |
| 20260503190148 | 61 | 138 | 0.0 | 2.0 | 0.00 | 0.00 | 0.00 | 75 | 1015.5 |
| 20260503184653 | 61 | 123 | 0.0 | 3.0 | 0.00 | 0.00 | 0.00 | 74 | 1015.5 |
| 20260503183155 | 61 | 119 | 1.0 | 7.0 | 0.00 | 0.00 | 0.00 | 73 | 1015.6 |
| 20260503181652 | 62 | 120 | 2.0 | 7.0 | 0.00 | 0.00 | 0.00 | 73 | 1015.5 |
| 20260503174651 | 62 | 174 | 3.0 | 8.0 | 0.00 | 0.00 | 0.00 | 73 | 1015.6 |
| 20260503173138 | 62 | 147 | 2.0 | 7.0 | 0.00 | 0.00 | 0.00 | 75 | 1015.4 |
| 20260503171652 | 62 | 161 | 6.0 | 9.0 | 0.00 | 0.00 | 0.00 | 76 | 1015.3 |
| 20260503170152 | 62 | 118 | 5.0 | 9.0 | 0.00 | 0.00 | 0.00 | 76 | 1015.3 |
| 20260503160148 | 65 | 110 | 1.0 | 8.0 | 0.00 | 0.00 | 0.00 | 70 | 1014.9 |
| 20260503140149 | 67 | 164 | 3.0 | 9.0 | 0.00 | 0.00 | 0.00 | 63 | 1016.0 |
| 20260503130150 | 66 | 148 | 4.0 | 11.0 | 0.00 | 0.00 | 0.00 | 68 | 1016.8 |
| 20260503100150 | 66 | 198 | 2.0 | 9.0 | 0.00 | 0.00 | 0.00 | 66 | 1018.0 |
| 20260503071653 | 61 | 320 | 0.0 | 4.0 | 0.00 | 0.00 | 0.00 | 79 | 1018.2 |
| 20260503060149 | 59 | 338 | 0.0 | 5.0 | 0.00 | 0.00 | 0.00 | 84 | 1018.4 |
| 20260503054652 | 59 | 261 | 0.0 | 0.0 | 0.00 | 0.00 | 0.00 | 85 | 1018.3 |
| 20260503053143 | 59 | 261 | 0.0 | 0.0 | 0.00 | 0.00 | 0.00 | 85 | 1018.1 |
| 20260503051654 | 59 | 260 | 0.0 | 0.0 | 0.00 | 0.00 | 0.00 | 84 | 1017.9 |
| 20260503050154 | 59 | 254 | 0.0 | 0.0 | 0.00 | 0.00 | 0.00 | 84 | 1018.0 |
| 20260503044653 | 59 | 250 | 0.0 | 0.0 | 0.00 | 0.00 | 0.00 | 84 | 1018.0 |
| 20260503043139 | 59 | 99 | 0.0 | 0.0 | 0.00 | 0.00 | 0.00 | 84 | 1017.9 |
| 20260503041652 | 60 | 99 | 0.0 | 0.0 | 0.00 | 0.00 | 0.00 | 82 | 1018.0 |
| 20260503034654 | 60 | 99 | 0.0 | 1.0 | 0.00 | 0.00 | 0.00 | 83 | 1018.4 |
| 20260503033137 | 60 | 99 | 0.0 | 0.0 | 0.00 | 0.00 | 0.00 | 83 | 1018.5 |
| 20260503031651 | 61 | 99 | 0.0 | 0.0 | 0.00 | 0.00 | 0.00 | 83 | 1018.5 |
| 20260503030109 | 61 | 99 | 0.0 | 0.0 | 0.00 | 0.00 | 0.00 | 82 | 1018.7 |
| 20260503024656 | 61 | 99 | 0.0 | 0.0 | 0.00 | 0.00 | 0.00 | 82 | 1018.7 |
| 20260503023146 | 61 | 120 | 0.0 | 4.0 | 0.00 | 0.00 | 0.00 | 82 | 1018.8 |
| 20260503021653 | 61 | 207 | 0.0 | 4.0 | 0.00 | 0.00 | 0.00 | 82 | 1018.9 |
| 20260503020150 | 61 | 136 | 0.0 | 4.0 | 0.00 | 0.00 | 0.00 | 81 | 1018.7 |
| 20260503014652 | 61 | 142 | 1.0 | 4.0 | 0.00 | 0.00 | 0.00 | 80 | 1018.8 |
| 20260503013141 | 61 | 142 | 1.0 | 5.0 | 0.00 | 0.00 | 0.00 | 81 | 1018.9 |
| 20260503011655 | 61 | 151 | 0.0 | 2.0 | 0.00 | 0.00 | 0.00 | 81 | 1019.0 |
| 20260503004649 | 61 | 163 | 0.0 | 3.0 | 0.00 | 0.00 | 0.00 | 80 | 1019.4 |
| 20260503003156 | 61 | 159 | 0.0 | 0.0 | 0.00 | 0.00 | 0.00 | 80 | 1019.6 |
| 20260503001651 | 61 | 159 | 0.0 | 2.0 | 0.00 | 0.00 | 0.00 | 80 | 1020.0 |
| 20260502234654 | 62 | 141 | 0.0 | 0.0 | 0.00 | 0.00 | 0.00 | 80 | 1020.2 |
| 20260502233159 | 62 | 141 | 0.0 | 0.0 | 0.00 | 0.00 | 0.00 | 80 | 1020.3 |
| 20260502231623 | 62 | 146 | 0.0 | 2.0 | 0.00 | 0.00 | 0.00 | 80 | 1020.4 |
| 20260502230148 | 62 | 139 | 0.0 | 4.0 | 0.00 | 0.00 | 0.00 | 80 | 1020.3 |
| 20260502224654 | 62 | 142 | 0.0 | 3.0 | 0.00 | 0.00 | 0.00 | 80 | 1020.4 |
| 20260502223139 | 62 | 131 | 0.0 | 2.0 | 0.00 | 0.00 | 0.00 | 81 | 1020.5 |
| 20260502221652 | 62 | 131 | 0.0 | 0.0 | 0.00 | 0.00 | 0.00 | 80 | 1020.5 |
| 20260502220151 | 62 | 137 | 0.0 | 0.0 | 0.00 | 0.00 | 0.00 | 80 | 1020.7 |
| 20260502214653 | 62 | 94 | 0.0 | 0.0 | 0.00 | 0.00 | 0.00 | 80 | 1020.7 |
| 20260502213156 | 62 | 94 | 0.0 | 0.0 | 0.00 | 0.00 | 0.00 | 79 | 1020.9 |
| 20260502211650 | 62 | 94 | 0.0 | 0.0 | 0.00 | 0.00 | 0.00 | 79 | 1021.0 |
| 20260502204651 | 62 | 166 | 0.0 | 0.0 | 0.00 | 0.00 | 0.00 | 78 | 1021.0 |
| 20260502203155 | 62 | 157 | 0.0 | 4.0 | 0.00 | 0.00 | 0.00 | 78 | 1021.1 |